Hourly Data Report for June 28, 2012

HALIFAX STANFIELD INT'L A
NOVA SCOTIA

44°52'48.060" N
63°30'00.050" W
145.40 m
8202250
71395
YHZ

Download Data

Hourly Data (June 2012)
Hourly Data Report for June 28, 2012
TIME
LST
Temp Definition
°C
Dew Point Definition
°C
Rel Hum Definition
%
Precip. Amount Definition
mm

Wind Dir Definition
10's deg

Wind Spd Definition
km/h
Visibility Definition
km
Stn Press Definition
kPa
Hmdx Definition


Wind Chill Definition


Weather Definition


00:00 14.2 13.3 94   18 15 16.1 98.80     Mostly Cloudy
01:00 13.9 13.4 97   17 15 16.1 98.81     Mostly Cloudy
02:00 14.0 13.4 96   15 15 16.1 98.78     Cloudy
03:00 14.2 13.3 94   17 13 16.1 98.75     Cloudy
04:00 14.2 13.3 94   17 9 16.1 98.77     Cloudy
05:00 14.2 13.4 95   16 15 16.1 98.79     Mostly Cloudy
06:00 14.6 13.7 94   18 17 19.3 98.79     Cloudy
07:00 15.0 14.0 94   18 15 24.1 98.78     Mostly Cloudy
08:00 16.7 15.1 90   17 22 24.1 98.78     Mostly Cloudy
09:00 18.4 14.6 79   18 24 24.1 98.78     Mostly Cloudy
10:00 18.8 14.4 76   20 20 24.1 98.77     Mostly Cloudy
11:00 20.2 14.9 72   21 26 24.1 98.76     Mostly Cloudy
12:00 21.1 14.6 66   20 30 24.1 98.75 25   Mostly Cloudy
13:00 21.1 14.9 68   21 26 24.1 98.72 25   Mostly Cloudy
14:00 21.1 15.3 69   20 20 24.1 98.68 25   Mostly Cloudy
15:00 21.4 16.1 72   16 22 24.1 98.65 26   Mostly Cloudy
16:00 21.4 15.6 70   19 22 24.1 98.64 26   Mostly Cloudy
17:00 20.9 15.4 71   20 20 24.1 98.62 25   Mostly Cloudy
18:00 18.0 15.3 84   20 20 24.1 98.69     Thunderstorms,Rain Showers
19:00 16.8 14.9 89   21 17 24.1 98.69     Mostly Cloudy
20:00 16.6 15.1 91   24 9 24.1 98.79     Rain Showers
21:00 15.6 14.9 96     0 24.1 98.77     Mostly Cloudy
22:00 14.9 14.5 97   16 11 24.1 98.79     Mostly Cloudy
23:00 14.2 14.1 99   20 11 24.1 98.78     Mostly Cloudy

Notes on Data Quality.

Legend

  • E = Estimated
  • M = Missing
  • NA = Not Available*
  • [empty] = Indicates an unobserved value
Date modified: